• In Germany
  • List of Countries
  • For 7 days
  • Water Temperature
  • Satellite Maps
  • Weather Map
  • Weather Widgets
  • user-avatar
    Login

    Hourly Weather Naftalan

    Today, 25 May, Thursday

    Time Temperature Precipitation Wind Pressure Humidity
    00:00 +18°C° 0 mm 3 mps 763 mmHg 72%
    01:00 +17°C° 0 mm 3 mps 763 mmHg 73%
    02:00 +17°C° 0 mm 2 mps 763 mmHg 74%
    03:00 +17°C° 0 mm 2 mps 763 mmHg 78%
    04:00 +17°C° 0 mm 2 mps 763 mmHg 74%
    05:00 +18°C° 0 mm 2 mps 764 mmHg 70%
    06:00 +19°C° 0 mm 2 mps 764 mmHg 65%
    07:00 +21°C° 0 mm 2 mps 764 mmHg 56%
    08:00 +24°C° 0 mm 2 mps 764 mmHg 47%
    09:00 +25°C° 0 mm 4 mps 764 mmHg 43%
    10:00 +26°C° 0 mm 4 mps 764 mmHg 43%
    11:00 +27°C° 0 mm 4 mps 764 mmHg 44%
    12:00 +28°C° 0 mm 5 mps 764 mmHg 44%
    13:00 +27°C° 0 mm 5 mps 764 mmHg 49%
    14:00 +27°C° 0 mm 6 mps 763 mmHg 53%
    15:00 +26°C° 0 mm 6 mps 763 mmHg 59%
    16:00 +24°C° 0 mm 6 mps 763 mmHg 62%
    17:00 +23°C° 0 mm 6 mps 763 mmHg 66%
    18:00 +21°C° 0 mm 5 mps 763 mmHg 69%
    19:00 +20°C° 0 mm 5 mps 764 mmHg 73%
    20:00 +19°C° 0 mm 4 mps 764 mmHg 76%
    21:00 +18°C° 0 mm 4 mps 765 mmHg 80%
    22:00 +18°C° 0 mm 4 mps 765 mmHg 79%
    23:00 +18°C° 0 mm 3 mps 765 mmHg 79%

    Tomorrow, 26 May, Friday

    Time Temperature Precipitation Wind Pressure Humidity
    00:00 +17°C° 0 mm 3 mps 765 mmHg 78%
    01:00 +17°C° 0 mm 3 mps 765 mmHg 79%
    02:00 +17°C° 0 mm 3 mps 765 mmHg 80%
    03:00 +16°C° 0 mm 2 mps 765 mmHg 81%
    04:00 +17°C° 0 mm 2 mps 765 mmHg 78%
    05:00 +18°C° 0 mm 2 mps 765 mmHg 76%
    06:00 +19°C° 0 mm 2 mps 766 mmHg 73%
    07:00 +20°C° 0 mm 2 mps 766 mmHg 68%
    08:00 +23°C° 0 mm 2 mps 766 mmHg 63%
    09:00 +24°C° 0 mm 2 mps 765 mmHg 57%
    10:00 +25°C° 0 mm 3 mps 765 mmHg 55%
    11:00 +25°C° 0 mm 3 mps 765 mmHg 54%
    12:00 +26°C° 0 mm 4 mps 764 mmHg 52%
    13:00 +26°C° 0 mm 4 mps 764 mmHg 52%
    14:00 +26°C° 0 mm 5 mps 763 mmHg 52%
    15:00 +27°C° 0 mm 5 mps 763 mmHg 53%
    16:00 +25°C° 0 mm 5 mps 763 mmHg 56%
    17:00 +23°C° 0 mm 5 mps 762 mmHg 60%
    18:00 +22°C° 0 mm 5 mps 762 mmHg 64%
    19:00 +21°C° 0 mm 4 mps 762 mmHg 70%
    20:00 +20°C° 0 mm 4 mps 763 mmHg 75%
    21:00 +18°C° 0 mm 3 mps 763 mmHg 80%
    22:00 +18°C° 0 mm 3 mps 763 mmHg 82%
    23:00 +17°C° 0 mm 2 mps 763 mmHg 84%

    Day after tomorrow, 27 May, Saturday

    Time Temperature Precipitation Wind Pressure Humidity
    00:00 +17°C° 0 mm 2 mps 762 mmHg 87%
    01:00 +16°C° 0 mm 2 mps 762 mmHg 88%
    02:00 +16°C° 0 mm 2 mps 762 mmHg 90%
    03:00 +15°C° 0 mm 1 mps 762 mmHg 91%
    04:00 +18°C° 0 mm 1 mps 762 mmHg 87%
    05:00 +19°C° 0 mm 1 mps 762 mmHg 83%
    06:00 +20°C° 0 mm 1 mps 762 mmHg 79%
    07:00 +22°C° 0 mm 1 mps 762 mmHg 71%
    08:00 +23°C° 0 mm 1 mps 762 mmHg 62%
    09:00 +25°C° 0 mm 1 mps 762 mmHg 54%
    10:00 +26°C° 0 mm 2 mps 761 mmHg 51%
    11:00 +27°C° 0 mm 2 mps 761 mmHg 48%
    12:00 +29°C° 0 mm 3 mps 761 mmHg 44%
    13:00 +29°C° 0 mm 3 mps 760 mmHg 44%
    14:00 +29°C° 0 mm 4 mps 760 mmHg 44%
    15:00 +29°C° 0 mm 4 mps 759 mmHg 44%
    16:00 +28°C° 0.1 mm 4 mps 759 mmHg 48%
    17:00 +26°C° 0.1 mm 4 mps 759 mmHg 51%
    18:00 +25°C° 0.1 mm 4 mps 759 mmHg 55%
    19:00 +22°C° 0 mm 3 mps 759 mmHg 61%
    20:00 +21°C° 0 mm 3 mps 759 mmHg 67%
    21:00 +19°C° 0 mm 2 mps 760 mmHg 73%
    22:00 +19°C° 0 mm 2 mps 760 mmHg 74%
    23:00 +18°C° 0 mm 3 mps 760 mmHg 76%

    28 May, Sunday

    Time Temperature Precipitation Wind Pressure Humidity
    00:00 +18°C° 0 mm 3 mps 760 mmHg 77%
    01:00 +17°C° 0 mm 3 mps 760 mmHg 78%
    02:00 +17°C° 0 mm 2 mps 760 mmHg 79%
    03:00 +17°C° 0 mm 2 mps 760 mmHg 79%
    04:00 +18°C° 0 mm 2 mps 760 mmHg 74%
    05:00 +20°C° 0 mm 1 mps 761 mmHg 69%
    06:00 +22°C° 0 mm 1 mps 761 mmHg 64%
    07:00 +24°C° 0 mm 1 mps 761 mmHg 57%
    08:00 +26°C° 0 mm 1 mps 761 mmHg 50%
    09:00 +28°C° 0 mm 1 mps 761 mmHg 43%
    10:00 +29°C° 0 mm 2 mps 761 mmHg 41%
    11:00 +31°C° 0 mm 2 mps 760 mmHg 38%
    12:00 +33°C° 0 mm 3 mps 760 mmHg 35%
    13:00 +33°C° 0 mm 4 mps 760 mmHg 37%
    14:00 +33°C° 0 mm 5 mps 759 mmHg 38%
    15:00 +32°C° 0 mm 6 mps 759 mmHg 39%
    16:00 +30°C° 0 mm 5 mps 759 mmHg 45%
    17:00 +28°C° 0 mm 5 mps 759 mmHg 50%
    18:00 +26°C° 0 mm 5 mps 759 mmHg 55%
    19:00 +23°C° 0 mm 4 mps 759 mmHg 61%
    20:00 +22°C° 0 mm 3 mps 760 mmHg 66%
    21:00 +20°C° 0 mm 3 mps 760 mmHg 72%
    22:00 +20°C° 0 mm 2 mps 760 mmHg 74%
    23:00 +19°C° 0 mm 2 mps 760 mmHg 77%

    29 May, Monday

    Time Temperature Precipitation Wind Pressure Humidity
    00:00 +20°C° 0 mm 1 mps 760 mmHg 79%
    01:00 +19°C° 0 mm 2 mps 761 mmHg 77%
    02:00 +19°C° 0 mm 2 mps 761 mmHg 75%
    03:00 +19°C° 0 mm 3 mps 762 mmHg 74%
    04:00 +20°C° 0 mm 3 mps 762 mmHg 71%
    05:00 +21°C° 0 mm 3 mps 763 mmHg 68%
    06:00 +22°C° 0 mm 3 mps 764 mmHg 65%
    07:00 +23°C° 0 mm 4 mps 765 mmHg 58%
    08:00 +26°C° 0 mm 6 mps 765 mmHg 52%
    09:00 +27°C° 0 mm 7 mps 766 mmHg 46%
    10:00 +28°C° 0 mm 8 mps 767 mmHg 45%
    11:00 +28°C° 0 mm 9 mps 767 mmHg 44%
    12:00 +28°C° 0 mm 11 mps 767 mmHg 43%
    13:00 +27°C° 0 mm 10 mps 768 mmHg 45%
    14:00 +26°C° 0 mm 10 mps 768 mmHg 47%
    15:00 +23°C° 0 mm 10 mps 768 mmHg 49%
    16:00 +22°C° 0 mm 9 mps 768 mmHg 53%
    17:00 +21°C° 0 mm 9 mps 769 mmHg 57%
    18:00 +18°C° 0 mm 9 mps 769 mmHg 60%
    19:00 +18°C° 0 mm 8 mps 769 mmHg 60%
    20:00 +17°C° 0 mm 7 mps 770 mmHg 61%
    21:00 +17°C° 0 mm 7 mps 770 mmHg 61%
    22:00 +16°C° 0 mm 6 mps 770 mmHg 61%
    23:00 +16°C° 0 mm 6 mps 769 mmHg 62%

    30 May, Tuesday

    Time Temperature Precipitation Wind Pressure Humidity
    00:00 +16°C° 0 mm 5 mps 769 mmHg 62%
    01:00 +15°C° 0 mm 4 mps 769 mmHg 63%
    02:00 +15°C° 0 mm 4 mps 768 mmHg 64%
    03:00 +15°C° 0 mm 4 mps 768 mmHg 65%
    04:00 +17°C° 0 mm 3 mps 768 mmHg 64%
    05:00 +17°C° 0 mm 3 mps 768 mmHg 62%
    06:00 +18°C° 0 mm 3 mps 768 mmHg 61%
    07:00 +19°C° 0 mm 3 mps 768 mmHg 59%
    08:00 +20°C° 0 mm 3 mps 767 mmHg 57%
    09:00 +21°C° 0 mm 2 mps 767 mmHg 55%
    10:00 +22°C° 0 mm 3 mps 766 mmHg 53%
    11:00 +24°C° 0 mm 3 mps 765 mmHg 51%
    12:00 +26°C° 0 mm 3 mps 765 mmHg 49%
    13:00 +26°C° 0 mm 4 mps 764 mmHg 49%
    14:00 +26°C° 0 mm 4 mps 763 mmHg 48%
    15:00 +27°C° 0 mm 5 mps 763 mmHg 48%
    16:00 +26°C° 0 mm 4 mps 763 mmHg 51%
    17:00 +23°C° 0 mm 4 mps 763 mmHg 54%
    18:00 +22°C° 0 mm 4 mps 762 mmHg 57%
    19:00 +21°C° 0 mm 3 mps 763 mmHg 62%
    20:00 +19°C° 0 mm 3 mps 763 mmHg 67%
    21:00 +18°C° 0 mm 2 mps 763 mmHg 72%
    22:00 +17°C° 0 mm 2 mps 763 mmHg 74%
    23:00 +17°C° 0 mm 2 mps 763 mmHg 76%
    Show more